Clarksburg, WV

6:52 PM EST on November 21, 2019 (GMT -0500)
Benedum

Weather History for KCKB - September, 2019

Change the Weather History Date:

Saturday, September 28, 2019

  Actual Average Record
Temperature  
Mean Temperature 77 °F -  
Max Temperature 90 °F 70 °F 93 °F (1959)
Min Temperature 64 °F 48 °F 32 °F (1947)
Cooling Degree Days 12    
Month to date cooling degree days 216  
Year to date cooling degree days 1253  
Growing Degree Days 27 (Base 50)    
Moisture  
Dew Point 63 °F    
Average Humidity 61    
Maximum Humidity 84    
Minimum Humidity 38    
Precipitation  
Precipitation 0.20 in - - ()
Month to date precipitation 0.35  
Year to date precipitation 31.86  
Sea Level Pressure  
Sea Level Pressure 30.07 in    
Wind  
Wind Speed 4 mph (NW)    
Max Wind Speed 15 mph    
Max Gust Speed 21 mph    
Visibility 9 miles    
Events Rain , Thunderstorm    
Averages and records for this station are not official NWS values.
T = Trace of Precipitation, MM = Missing Value Source: NWS Daily Summary

Daily Weather History Graph

Daily Weather History Graph

Search for Another Location

Airport or City:

Astronomy

Sep. 28, 2019 Rise Set
Actual Time 7:13 AM EDT 7:08 PM EDT
Civil Twilight 6:47 AM EDT 7:35 PM EDT
Nautical Twilight 6:16 AM EDT 8:06 PM EDT
Astronomical Twilight 5:44 AM EDT 8:37 PM EDT
Moon 6:48 AM EDT (9/28) 7:33 PM EDT (9/28)
Length of Visible Light 12h 48m
Length of Day
11h 54m
Waning Crescent, 0% of the Moon is Illuminated
Sep 28
Waning Crescent
Sep 28
New
Oct 5
First Quarter
Oct 13
Full
Oct 21
Last Quarter

Hourly Weather History & Observations

Time (EDT) Temp. Heat Index Dew Point Humidity Pressure Visibility Wind Dir Wind Speed Gust Speed Precip Events Conditions
12:53 AM 66.0 °F - 57.0 °F 73% 29.96 in 10.0 mi Calm Calm - N/A   Clear
1:53 AM 68.0 °F - 57.0 °F 68% 29.96 in 10.0 mi Calm Calm - N/A   Clear
2:53 AM 68.0 °F - 57.0 °F 68% 29.96 in 10.0 mi Calm Calm - N/A   Clear
3:53 AM 68.0 °F - 57.9 °F 70% 29.98 in 10.0 mi Calm Calm - N/A   Clear
4:53 AM 69.1 °F - 57.9 °F 68% 29.99 in 10.0 mi Calm Calm - N/A   Clear
5:53 AM 68.0 °F - 59.0 °F 73% 29.99 in 10.0 mi Calm Calm - N/A   Clear
6:53 AM 68.0 °F - 59.0 °F 73% 30.00 in 10.0 mi Calm Calm - N/A   Clear
7:53 AM 64.9 °F - 59.0 °F 81% 30.02 in 10.0 mi Calm Calm - N/A   Clear
8:53 AM 75.9 °F - 62.1 °F 62% 30.04 in 10.0 mi Calm Calm - N/A   Clear
9:53 AM 75.9 °F - 63.0 °F 64% 30.08 in 9.0 mi NW 5.8 mph - 0.00 in Rain Light Rain
10:02 AM 73.9 °F - 64.0 °F 71% 30.13 in 2.0 mi WNW 6.9 mph - 0.05 in Rain , Thunderstorm Thunderstorms and Rain
10:09 AM 72.0 °F - 64.9 °F 78% 30.12 in 1.2 mi Calm Calm - 0.08 in Rain , Thunderstorm Light Thunderstorms and Rain
10:12 AM 72.0 °F - 64.9 °F 78% 30.12 in 2.0 mi Calm Calm - 0.08 in Rain Light Rain
10:19 AM 72.0 °F - 66.0 °F 81% 30.13 in 8.0 mi Calm Calm - 0.08 in Rain Light Rain
10:25 AM 72.0 °F - 66.0 °F 81% 30.12 in 1.8 mi Calm Calm - 0.16 in Rain Heavy Rain
10:34 AM 72.0 °F - 66.0 °F 81% 30.12 in 3.0 mi East 3.5 mph - 0.18 in Rain Light Rain
10:53 AM 73.0 °F - 66.9 °F 81% 30.09 in 10.0 mi Variable 4.6 mph - 0.18 in   Scattered Clouds
11:53 AM 79.0 °F - 66.9 °F 66% 30.10 in 10.0 mi Calm Calm - N/A   Scattered Clouds
12:53 PM 82.0 °F 84.5 °F 66.9 °F 60% 30.09 in 10.0 mi WSW 4.6 mph - 0.00 in   Scattered Clouds
1:53 PM 82.9 °F 84.6 °F 64.9 °F 54% 30.06 in 10.0 mi South 8.1 mph - N/A   Clear
2:53 PM 88.0 °F 89.3 °F 64.0 °F 45% 30.04 in 10.0 mi SSW 10.4 mph - N/A   Clear
3:53 PM 89.1 °F 89.3 °F 62.1 °F 40% 30.03 in 10.0 mi SSW 11.5 mph - N/A   Clear
4:53 PM 90.0 °F 90.0 °F 61.0 °F 38% 30.03 in 10.0 mi West 9.2 mph - N/A   Partly Cloudy
5:53 PM 89.1 °F 89.0 °F 61.0 °F 39% 30.04 in 10.0 mi West 6.9 mph - N/A   Partly Cloudy
6:53 PM 84.9 °F 85.0 °F 61.0 °F 44% 30.06 in 10.0 mi West 3.5 mph - N/A   Scattered Clouds
7:53 PM 81.0 °F 82.2 °F 63.0 °F 54% 30.08 in 10.0 mi NNE 3.5 mph - N/A   Mostly Cloudy
8:53 PM 80.1 °F 81.7 °F 64.0 °F 58% 30.08 in 10.0 mi North 8.1 mph - N/A   Mostly Cloudy
9:45 PM 73.9 °F - 66.9 °F 79% 30.15 in 8.0 mi NE 8.1 mph - 0.02 in Rain , Thunderstorm Light Rain
9:53 PM 73.9 °F - 68.0 °F 82% 30.12 in 10.0 mi North 6.9 mph - 0.02 in Thunderstorm Mostly Cloudy
10:02 PM 73.9 °F - 68.0 °F 82% 30.17 in 10.0 mi NNW 4.6 mph - N/A Thunderstorm Thunderstorm
10:24 PM 73.9 °F - 66.0 °F 76% 30.17 in 10.0 mi NNW 3.5 mph - 0.00 in   Mostly Cloudy
10:53 PM 73.0 °F - 66.0 °F 79% 30.14 in 10.0 mi ENE 4.6 mph - 0.00 in   Mostly Cloudy
11:53 PM 71.1 °F - 64.0 °F 78% 30.15 in 10.0 mi Calm Calm - N/A   Clear